Time,TemperatureF,DewpointF,PressureIn,WindDirection,WindDirectionDegrees,WindSpeedMPH,WindSpeedGustMPH,Humidity,HourlyPrecipIn,Conditions,Clouds,dailyrainin,SoftwareType,DateUTC
2013-09-17 00:02:00,59.0,46.4,30.14,NE,37,11.5,-999.9,63,-99.99,,,-99.99,,2013-09-17 04:02:00,
2013-09-17 00:08:00,59.0,46.4,30.14,NE,37,11.5,-999.9,63,-99.99,,,-99.99,,2013-09-17 04:08:00,
2013-09-17 00:14:00,59.0,46.4,30.15,NNE,19,11.5,-999.9,63,-99.99,,,-99.99,,2013-09-17 04:14:00,
2013-09-17 00:20:00,59.0,46.4,30.15,NNE,19,11.5,-999.9,63,-99.99,,,-99.99,,2013-09-17 04:20:00,
2013-09-17 00:26:00,57.2,44.6,30.15,NNE,33,12.7,-999.9,63,-99.99,,,-99.99,,2013-09-17 04:26:00,
2013-09-17 00:32:00,57.2,44.6,30.16,NE,39,17.3,-999.9,63,-99.99,,,-99.99,,2013-09-17 04:32:00,
2013-09-17 00:38:00,57.2,44.6,30.16,NE,39,17.3,-999.9,63,-99.99,,,-99.99,,2013-09-17 04:38:00,
2013-09-17 00:44:00,57.2,44.6,30.16,NNE,15,16.1,-999.9,63,-99.99,,,-99.99,,2013-09-17 04:44:00,
2013-09-17 00:50:00,57.2,44.6,30.16,NNE,15,16.1,-999.9,63,-99.99,,,-99.99,,2013-09-17 04:50:00,
2013-09-17 00:56:00,57.2,44.6,30.17,NNE,23,11.5,-999.9,63,-99.99,,,-99.99,,2013-09-17 04:56:00,
2013-09-17 01:02:00,57.2,44.6,30.17,NE,39,13.8,-999.9,63,-99.99,,,-99.99,,2013-09-17 05:02:00,
2013-09-17 01:08:00,57.2,44.6,30.17,NE,39,13.8,-999.9,63,-99.99,,,-99.99,,2013-09-17 05:08:00,
2013-09-17 01:22:00,55.4,41.0,30.18,NNE,27,13.8,-999.9,58,-99.99,,,-99.99,,2013-09-17 05:22:00,
2013-09-17 01:28:00,55.4,41.0,30.18,NNE,27,13.8,-999.9,58,-99.99,,,-99.99,,2013-09-17 05:28:00,
2013-09-17 01:42:00,55.4,41.0,30.19,NNE,17,12.7,-999.9,58,-99.99,,,-99.99,,2013-09-17 05:42:00,
2013-09-17 01:48:00,55.4,41.0,30.19,NNE,17,12.7,-999.9,58,-99.99,,,-99.99,,2013-09-17 05:48:00,
2013-09-17 02:02:00,55.4,39.2,30.20,NNE,26,9.2,-999.9,54,-99.99,,,-99.99,,2013-09-17 06:02:00,
2013-09-17 02:08:00,55.4,39.2,30.20,NNE,26,9.2,-999.9,54,-99.99,,,-99.99,,2013-09-17 06:08:00,
2013-09-17 02:14:00,55.4,39.2,30.20,NNE,17,8.1,-999.9,54,-99.99,,,-99.99,,2013-09-17 06:14:00,
2013-09-17 02:20:00,55.4,39.2,30.20,NNE,17,8.1,-999.9,54,-99.99,,,-99.99,,2013-09-17 06:20:00,
2013-09-17 02:26:00,53.6,37.4,30.20,NNE,24,9.2,-999.9,54,-99.99,,,-99.99,,2013-09-17 06:26:00,
2013-09-17 02:32:00,53.6,37.4,30.21,NNE,14,9.2,-999.9,54,-99.99,,,-99.99,,2013-09-17 06:32:00,
2013-09-17 02:38:00,53.6,37.4,30.21,NNE,14,9.2,-999.9,54,-99.99,,,-99.99,,2013-09-17 06:38:00,
2013-09-17 02:44:00,53.6,37.4,30.21,NNE,23,10.4,-999.9,54,-99.99,,,-99.99,,2013-09-17 06:44:00,
2013-09-17 02:50:00,53.6,37.4,30.21,NNE,23,10.4,-999.9,54,-99.99,,,-99.99,,2013-09-17 06:50:00,
2013-09-17 02:56:00,53.6,37.4,30.22,NNE,23,19.6,-999.9,54,-99.99,,,-99.99,,2013-09-17 06:56:00,
2013-09-17 03:02:00,53.6,39.2,30.22,NNE,23,17.3,-999.9,58,-99.99,,,-99.99,,2013-09-17 07:02:00,
2013-09-17 03:08:00,53.6,39.2,30.22,NNE,23,17.3,-999.9,58,-99.99,,,-99.99,,2013-09-17 07:08:00,
2013-09-17 03:14:00,51.8,37.4,30.22,NNE,29,16.1,-999.9,58,-99.99,,,-99.99,,2013-09-17 07:14:00,
2013-09-17 03:20:00,51.8,37.4,30.22,NNE,29,16.1,-999.9,58,-99.99,,,-99.99,,2013-09-17 07:20:00,
2013-09-17 03:26:00,51.8,39.2,30.22,NE,35,16.1,-999.9,62,-99.99,,,-99.99,,2013-09-17 07:26:00,
2013-09-17 03:32:00,51.8,39.2,30.22,NNE,32,12.7,-999.9,62,-99.99,,,-99.99,,2013-09-17 07:32:00,
2013-09-17 03:38:00,51.8,39.2,30.22,NNE,32,12.7,-999.9,62,-99.99,,,-99.99,,2013-09-17 07:38:00,
2013-09-17 03:44:00,51.8,39.2,30.23,NE,40,12.7,-999.9,62,-99.99,,,-99.99,,2013-09-17 07:44:00,
2013-09-17 03:50:00,51.8,39.2,30.23,NE,40,12.7,-999.9,62,-99.99,,,-99.99,,2013-09-17 07:50:00,
2013-09-17 03:56:00,51.8,39.2,30.23,NNE,33,11.5,-999.9,62,-99.99,,,-99.99,,2013-09-17 07:56:00,
2013-09-17 04:02:00,51.8,39.2,30.23,NNE,22,13.8,-999.9,62,-99.99,,,-99.99,,2013-09-17 08:02:00,
2013-09-17 04:08:00,51.8,39.2,30.23,NNE,22,13.8,-999.9,62,-99.99,,,-99.99,,2013-09-17 08:08:00,
2013-09-17 04:14:00,51.8,39.2,30.23,NE,37,12.7,-999.9,62,-99.99,,,-99.99,,2013-09-17 08:14:00,
2013-09-17 04:20:00,51.8,39.2,30.23,NE,37,12.7,-999.9,62,-99.99,,,-99.99,,2013-09-17 08:20:00,
2013-09-17 04:26:00,51.8,39.2,30.23,NE,35,8.1,-999.9,62,-99.99,,,-99.99,,2013-09-17 08:26:00,
2013-09-17 04:32:00,50.0,37.4,30.24,NE,37,12.7,-999.9,62,-99.99,,,-99.99,,2013-09-17 08:32:00,
2013-09-17 04:38:00,50.0,37.4,30.24,NE,37,12.7,-999.9,62,-99.99,,,-99.99,,2013-09-17 08:38:00,
2013-09-17 04:44:00,50.0,37.4,30.23,NNE,30,15.0,-999.9,62,-99.99,,,-99.99,,2013-09-17 08:44:00,
2013-09-17 04:50:00,50.0,37.4,30.23,NNE,30,15.0,-999.9,62,-99.99,,,-99.99,,2013-09-17 08:50:00,
2013-09-17 04:56:00,50.0,37.4,30.24,NNE,30,11.5,-999.9,62,-99.99,,,-99.99,,2013-09-17 08:56:00,
2013-09-17 05:02:00,50.0,37.4,30.24,NE,34,15.0,-999.9,62,-99.99,,,-99.99,,2013-09-17 09:02:00,
2013-09-17 05:08:00,50.0,37.4,30.24,NE,34,15.0,-999.9,62,-99.99,,,-99.99,,2013-09-17 09:08:00,
2013-09-17 05:14:00,50.0,37.4,30.24,NNE,25,15.0,-999.9,62,-99.99,,,-99.99,,2013-09-17 09:14:00,
2013-09-17 05:20:00,50.0,37.4,30.24,NNE,25,15.0,-999.9,62,-99.99,,,-99.99,,2013-09-17 09:20:00,
2013-09-17 05:26:00,50.0,37.4,30.24,NNE,23,13.8,-999.9,62,-99.99,,,-99.99,,2013-09-17 09:26:00,
2013-09-17 05:32:00,50.0,37.4,30.24,NE,36,13.8,-999.9,62,-99.99,,,-99.99,,2013-09-17 09:32:00,
2013-09-17 05:38:00,50.0,37.4,30.24,NE,36,13.8,-999.9,62,-99.99,,,-99.99,,2013-09-17 09:38:00,
2013-09-17 05:44:00,50.0,37.4,30.25,NNE,16,13.8,-999.9,62,-99.99,,,-99.99,,2013-09-17 09:44:00,
2013-09-17 05:50:00,50.0,37.4,30.25,NNE,16,13.8,-999.9,62,-99.99,,,-99.99,,2013-09-17 09:50:00,
2013-09-17 05:56:00,50.0,37.4,30.26,NNE,22,9.2,-999.9,62,-99.99,,,-99.99,,2013-09-17 09:56:00,
2013-09-17 06:02:00,50.0,37.4,30.26,NNE,24,12.7,-999.9,62,-99.99,,,-99.99,,2013-09-17 10:02:00,
2013-09-17 06:08:00,50.0,37.4,30.26,NNE,24,12.7,-999.9,62,-99.99,,,-99.99,,2013-09-17 10:08:00,
2013-09-17 06:14:00,50.0,37.4,30.27,NNE,33,15.0,-999.9,62,-99.99,,,-99.99,,2013-09-17 10:14:00,
2013-09-17 06:20:00,50.0,37.4,30.27,NNE,33,15.0,-999.9,62,-99.99,,,-99.99,,2013-09-17 10:20:00,
2013-09-17 06:26:00,50.0,37.4,30.27,NNE,24,11.5,-999.9,62,-99.99,,,-99.99,,2013-09-17 10:26:00,
2013-09-17 06:32:00,50.0,37.4,30.28,NE,36,12.7,-999.9,62,-99.99,,,-99.99,,2013-09-17 10:32:00,
2013-09-17 06:38:00,50.0,37.4,30.28,NE,36,12.7,-999.9,62,-99.99,,,-99.99,,2013-09-17 10:38:00,
2013-09-17 06:44:00,50.0,37.4,30.29,NNE,31,11.5,-999.9,62,-99.99,,,-99.99,,2013-09-17 10:44:00,
2013-09-17 06:50:00,50.0,37.4,30.29,NNE,31,11.5,-999.9,62,-99.99,,,-99.99,,2013-09-17 10:50:00,
2013-09-17 06:56:00,50.0,35.6,30.29,NNE,24,10.4,-999.9,58,-99.99,,,-99.99,,2013-09-17 10:56:00,
2013-09-17 07:02:00,50.0,35.6,30.29,NE,34,13.8,-999.9,58,-99.99,,,-99.99,,2013-09-17 11:02:00,
2013-09-17 07:08:00,50.0,35.6,30.29,NE,34,13.8,-999.9,58,-99.99,,,-99.99,,2013-09-17 11:08:00,
2013-09-17 07:14:00,50.0,35.6,30.30,NNE,31,11.5,-999.9,58,-99.99,,,-99.99,,2013-09-17 11:14:00,
2013-09-17 07:20:00,50.0,35.6,30.30,NNE,31,11.5,-999.9,58,-99.99,,,-99.99,,2013-09-17 11:20:00,
2013-09-17 07:26:00,50.0,35.6,30.30,NNE,33,10.4,-999.9,58,-99.99,,,-99.99,,2013-09-17 11:26:00,
2013-09-17 07:32:00,50.0,35.6,30.30,NNE,27,11.5,-999.9,58,-99.99,,,-99.99,,2013-09-17 11:32:00,
2013-09-17 07:38:00,50.0,35.6,30.30,NNE,27,11.5,-999.9,58,-99.99,,,-99.99,,2013-09-17 11:38:00,
2013-09-17 07:44:00,50.0,35.6,30.30,NE,37,11.5,-999.9,58,-99.99,,,-99.99,,2013-09-17 11:44:00,
2013-09-17 07:50:00,50.0,35.6,30.30,NE,37,11.5,-999.9,58,-99.99,,,-99.99,,2013-09-17 11:50:00,
2013-09-17 07:56:00,51.8,35.6,30.30,NNE,28,12.7,-999.9,54,-99.99,,,-99.99,,2013-09-17 11:56:00,
2013-09-17 08:02:00,51.8,35.6,30.30,NNE,17,10.4,-999.9,54,-99.99,,,-99.99,,2013-09-17 12:02:00,
2013-09-17 08:08:00,51.8,35.6,30.30,NNE,17,10.4,-999.9,54,-99.99,,,-99.99,,2013-09-17 12:08:00,
2013-09-17 08:14:00,51.8,35.6,30.30,NNE,13,10.4,-999.9,54,-99.99,,,-99.99,,2013-09-17 12:14:00,
2013-09-17 08:20:00,51.8,35.6,30.30,NNE,13,10.4,-999.9,54,-99.99,,,-99.99,,2013-09-17 12:20:00,
2013-09-17 08:26:00,51.8,35.6,30.30,North,11,16.1,-999.9,54,-99.99,,,-99.99,,2013-09-17 12:26:00,
2013-09-17 08:32:00,51.8,33.8,30.31,NNE,25,18.4,-999.9,50,-99.99,,,-99.99,,2013-09-17 12:32:00,
2013-09-17 08:38:00,51.8,33.8,30.31,NNE,25,18.4,-999.9,50,-99.99,,,-99.99,,2013-09-17 12:38:00,
2013-09-17 08:44:00,53.6,33.8,30.31,NE,37,17.3,-999.9,47,-99.99,,,-99.99,,2013-09-17 12:44:00,
2013-09-17 08:50:00,53.6,33.8,30.31,NE,37,17.3,-999.9,47,-99.99,,,-99.99,,2013-09-17 12:50:00,
2013-09-17 08:56:00,53.6,33.8,30.31,NE,37,12.7,-999.9,47,-99.99,,,-99.99,,2013-09-17 12:56:00,
2013-09-17 09:02:00,53.6,33.8,30.32,NE,38,17.3,-999.9,47,-99.99,,,-99.99,,2013-09-17 13:02:00,
2013-09-17 09:08:00,53.6,33.8,30.32,NE,38,17.3,-999.9,47,-99.99,,,-99.99,,2013-09-17 13:08:00,
2013-09-17 09:14:00,53.6,33.8,30.31,NE,44,17.3,-999.9,47,-99.99,,,-99.99,,2013-09-17 13:14:00,
2013-09-17 09:20:00,53.6,33.8,30.31,NE,44,17.3,-999.9,47,-99.99,,,-99.99,,2013-09-17 13:20:00,
2013-09-17 09:26:00,53.6,33.8,30.31,NE,37,19.6,-999.9,47,-99.99,,,-99.99,,2013-09-17 13:26:00,
2013-09-17 09:32:00,53.6,33.8,30.31,NNE,30,20.7,-999.9,47,-99.99,,,-99.99,,2013-09-17 13:32:00,
2013-09-17 09:38:00,53.6,33.8,30.31,NNE,30,20.7,-999.9,47,-99.99,,,-99.99,,2013-09-17 13:38:00,
2013-09-17 09:44:00,55.4,35.6,30.32,ENE,60,11.5,-999.9,47,-99.99,,,-99.99,,2013-09-17 13:44:00,
2013-09-17 09:50:00,55.4,35.6,30.32,ENE,60,11.5,-999.9,47,-99.99,,,-99.99,,2013-09-17 13:50:00,
2013-09-17 09:56:00,55.4,35.6,30.31,NE,54,10.4,-999.9,47,-99.99,,,-99.99,,2013-09-17 13:56:00,
2013-09-17 10:02:00,55.4,33.8,30.32,ENE,63,11.5,-999.9,44,-99.99,,,-99.99,,2013-09-17 14:02:00,
2013-09-17 10:08:00,55.4,33.8,30.32,ENE,63,11.5,-999.9,44,-99.99,,,-99.99,,2013-09-17 14:08:00,
2013-09-17 10:14:00,57.2,35.6,30.32,ENE,70,12.7,-999.9,44,-99.99,,,-99.99,,2013-09-17 14:14:00,
2013-09-17 10:20:00,57.2,35.6,30.32,ENE,70,12.7,-999.9,44,-99.99,,,-99.99,,2013-09-17 14:20:00,
2013-09-17 10:26:00,57.2,35.6,30.32,ENE,60,11.5,-999.9,44,-99.99,,,-99.99,,2013-09-17 14:26:00,
2013-09-17 10:32:00,57.2,33.8,30.32,NE,42,17.3,-999.9,41,-99.99,,,-99.99,,2013-09-17 14:32:00,
2013-09-17 10:38:00,57.2,33.8,30.32,NE,42,17.3,-999.9,41,-99.99,,,-99.99,,2013-09-17 14:38:00,
2013-09-17 10:44:00,57.2,33.8,30.32,NE,45,9.2,-999.9,41,-99.99,,,-99.99,,2013-09-17 14:44:00,
2013-09-17 10:50:00,57.2,33.8,30.32,NE,45,9.2,-999.9,41,-99.99,,,-99.99,,2013-09-17 14:50:00,
2013-09-17 10:56:00,57.2,35.6,30.32,ENE,65,8.1,-999.9,44,-99.99,,,-99.99,,2013-09-17 14:56:00,
2013-09-17 11:02:00,59.0,33.8,30.32,East,82,6.9,-999.9,39,-99.99,,,-99.99,,2013-09-17 15:02:00,
2013-09-17 11:08:00,59.0,33.8,30.32,East,82,6.9,-999.9,39,-99.99,,,-99.99,,2013-09-17 15:08:00,
2013-09-17 11:14:00,59.0,35.6,30.32,NE,41,11.5,-999.9,42,-99.99,,,-99.99,,2013-09-17 15:14:00,
2013-09-17 11:20:00,59.0,35.6,30.32,NE,41,11.5,-999.9,42,-99.99,,,-99.99,,2013-09-17 15:20:00,
2013-09-17 11:26:00,59.0,35.6,30.32,NE,56,10.4,-999.9,42,-99.99,,,-99.99,,2013-09-17 15:26:00,
2013-09-17 11:32:00,59.0,35.6,30.31,NE,55,13.8,-999.9,42,-99.99,,,-99.99,,2013-09-17 15:32:00,
2013-09-17 11:38:00,59.0,35.6,30.31,NE,55,13.8,-999.9,42,-99.99,,,-99.99,,2013-09-17 15:38:00,
2013-09-17 11:44:00,59.0,35.6,30.31,NE,51,10.4,-999.9,42,-99.99,,,-99.99,,2013-09-17 15:44:00,
2013-09-17 11:50:00,59.0,35.6,30.31,NE,51,10.4,-999.9,42,-99.99,,,-99.99,,2013-09-17 15:50:00,
2013-09-17 11:56:00,59.0,35.6,30.31,East,88,5.8,-999.9,42,-99.99,,,-99.99,,2013-09-17 15:56:00,
2013-09-17 12:02:00,59.0,35.6,30.30,East,101,5.8,-999.9,42,-99.99,,,-99.99,,2013-09-17 16:02:00,
2013-09-17 12:08:00,59.0,35.6,30.30,East,101,5.8,-999.9,42,-99.99,,,-99.99,,2013-09-17 16:08:00,
2013-09-17 12:14:00,60.8,37.4,30.30,East,82,5.8,-999.9,42,-99.99,,,-99.99,,2013-09-17 16:14:00,
2013-09-17 12:20:00,60.8,37.4,30.30,East,82,5.8,-999.9,42,-99.99,,,-99.99,,2013-09-17 16:20:00,
2013-09-17 12:26:00,60.8,37.4,30.30,East,83,3.5,-999.9,42,-99.99,,,-99.99,,2013-09-17 16:26:00,
2013-09-17 12:32:00,60.8,39.2,30.30,SE,124,2.3,-999.9,45,-99.99,,,-99.99,,2013-09-17 16:32:00,
2013-09-17 12:38:00,60.8,39.2,30.30,SE,124,2.3,-999.9,45,-99.99,,,-99.99,,2013-09-17 16:38:00,
2013-09-17 12:44:00,60.8,37.4,30.29,East,87,4.6,-999.9,42,-99.99,,,-99.99,,2013-09-17 16:44:00,
2013-09-17 12:50:00,60.8,37.4,30.29,East,87,4.6,-999.9,42,-99.99,,,-99.99,,2013-09-17 16:50:00,
2013-09-17 12:56:00,60.8,37.4,30.29,ESE,117,1.2,-999.9,42,-99.99,,,-99.99,,2013-09-17 16:56:00,
2013-09-17 13:02:00,60.8,37.4,30.29,ENE,69,4.6,-999.9,42,-99.99,,,-99.99,,2013-09-17 17:02:00,
2013-09-17 13:08:00,60.8,37.4,30.29,ENE,69,4.6,-999.9,42,-99.99,,,-99.99,,2013-09-17 17:08:00,
2013-09-17 13:14:00,60.8,37.4,30.29,East,101,3.5,-999.9,42,-99.99,,,-99.99,,2013-09-17 17:14:00,
2013-09-17 13:20:00,60.8,37.4,30.29,East,101,3.5,-999.9,42,-99.99,,,-99.99,,2013-09-17 17:20:00,
2013-09-17 13:26:00,62.6,37.4,30.28,ESE,116,1.2,-999.9,39,-99.99,,,-99.99,,2013-09-17 17:26:00,
2013-09-17 13:32:00,62.6,39.2,30.28,ESE,110,2.3,-999.9,42,-99.99,,,-99.99,,2013-09-17 17:32:00,
2013-09-17 13:38:00,62.6,39.2,30.28,ESE,110,2.3,-999.9,42,-99.99,,,-99.99,,2013-09-17 17:38:00,
2013-09-17 13:44:00,62.6,37.4,30.27,East,95,4.6,-999.9,39,-99.99,,,-99.99,,2013-09-17 17:44:00,
2013-09-17 13:50:00,62.6,37.4,30.27,East,95,4.6,-999.9,39,-99.99,,,-99.99,,2013-09-17 17:50:00,
2013-09-17 13:56:00,62.6,37.4,30.27,ENE,74,4.6,-999.9,39,-99.99,,,-99.99,,2013-09-17 17:56:00,
2013-09-17 14:02:00,62.6,37.4,30.27,ENE,68,5.8,-999.9,39,-99.99,,,-99.99,,2013-09-17 18:02:00,
2013-09-17 14:08:00,62.6,37.4,30.27,ENE,68,5.8,-999.9,39,-99.99,,,-99.99,,2013-09-17 18:08:00,
2013-09-17 14:14:00,64.4,37.4,30.27,East,82,3.5,-999.9,37,-99.99,,,-99.99,,2013-09-17 18:14:00,
2013-09-17 14:20:00,64.4,37.4,30.27,East,82,3.5,-999.9,37,-99.99,,,-99.99,,2013-09-17 18:20:00,
2013-09-17 14:26:00,64.4,37.4,30.27,ENE,70,4.6,-999.9,37,-99.99,,,-99.99,,2013-09-17 18:26:00,
2013-09-17 14:32:00,64.4,37.4,30.26,NE,45,5.8,-999.9,37,-99.99,,,-99.99,,2013-09-17 18:32:00,
2013-09-17 14:38:00,64.4,37.4,30.26,NE,45,5.8,-999.9,37,-99.99,,,-99.99,,2013-09-17 18:38:00,
2013-09-17 14:44:00,64.4,37.4,30.25,ESE,112,3.5,-999.9,37,-99.99,,,-99.99,,2013-09-17 18:44:00,
2013-09-17 14:50:00,64.4,37.4,30.25,ESE,112,3.5,-999.9,37,-99.99,,,-99.99,,2013-09-17 18:50:00,
2013-09-17 14:56:00,64.4,37.4,30.25,ENE,69,4.6,-999.9,37,-99.99,,,-99.99,,2013-09-17 18:56:00,
2013-09-17 15:02:00,64.4,37.4,30.25,East,89,3.5,-999.9,37,-99.99,,,-99.99,,2013-09-17 19:02:00,
2013-09-17 15:08:00,64.4,37.4,30.25,East,89,3.5,-999.9,37,-99.99,,,-99.99,,2013-09-17 19:08:00,
2013-09-17 15:14:00,64.4,37.4,30.25,ESE,113,3.5,-999.9,37,-99.99,,,-99.99,,2013-09-17 19:14:00,
2013-09-17 15:20:00,64.4,37.4,30.25,ESE,113,3.5,-999.9,37,-99.99,,,-99.99,,2013-09-17 19:20:00,
2013-09-17 15:26:00,64.4,37.4,30.24,ESE,115,3.5,-999.9,37,-99.99,,,-99.99,,2013-09-17 19:26:00,
2013-09-17 15:32:00,66.2,37.4,30.24,North,0,0.0,-999.9,35,-99.99,,,-99.99,,2013-09-17 19:32:00,
2013-09-17 15:38:00,66.2,37.4,30.24,North,0,0.0,-999.9,35,-99.99,,,-99.99,,2013-09-17 19:38:00,
2013-09-17 15:44:00,66.2,39.2,30.24,East,81,3.5,-999.9,37,-99.99,,,-99.99,,2013-09-17 19:44:00,
2013-09-17 15:50:00,66.2,39.2,30.24,East,81,3.5,-999.9,37,-99.99,,,-99.99,,2013-09-17 19:50:00,
2013-09-17 15:56:00,66.2,39.2,30.24,SE,136,4.6,-999.9,37,-99.99,,,-99.99,,2013-09-17 19:56:00,
2013-09-17 16:02:00,64.4,39.2,30.23,SE,138,6.9,-999.9,40,-99.99,,,-99.99,,2013-09-17 20:02:00,
2013-09-17 16:08:00,64.4,39.2,30.23,SE,138,6.9,-999.9,40,-99.99,,,-99.99,,2013-09-17 20:08:00,
2013-09-17 16:14:00,66.2,39.2,30.23,SSE,148,5.8,-999.9,37,-99.99,,,-99.99,,2013-09-17 20:14:00,
2013-09-17 16:20:00,66.2,39.2,30.23,SSE,148,5.8,-999.9,37,-99.99,,,-99.99,,2013-09-17 20:20:00,
2013-09-17 16:26:00,66.2,39.2,30.23,ESE,119,2.3,-999.9,37,-99.99,,,-99.99,,2013-09-17 20:26:00,
2013-09-17 16:32:00,66.2,39.2,30.23,South,186,3.5,-999.9,37,-99.99,,,-99.99,,2013-09-17 20:32:00,
2013-09-17 16:38:00,66.2,39.2,30.23,South,186,3.5,-999.9,37,-99.99,,,-99.99,,2013-09-17 20:38:00,
2013-09-17 16:44:00,64.4,39.2,30.23,SE,146,3.5,-999.9,40,-99.99,,,-99.99,,2013-09-17 20:44:00,
2013-09-17 16:50:00,64.4,39.2,30.23,SE,146,3.5,-999.9,40,-99.99,,,-99.99,,2013-09-17 20:50:00,
2013-09-17 16:56:00,66.2,39.2,30.23,SSE,150,3.5,-999.9,37,-99.99,,,-99.99,,2013-09-17 20:56:00,
2013-09-17 17:02:00,66.2,39.2,30.23,ESE,115,0.0,-999.9,37,-99.99,,,-99.99,,2013-09-17 21:02:00,
2013-09-17 17:08:00,66.2,39.2,30.23,ESE,115,0.0,-999.9,37,-99.99,,,-99.99,,2013-09-17 21:08:00,
2013-09-17 17:14:00,66.2,39.2,30.23,ESE,106,0.0,-999.9,37,-99.99,,,-99.99,,2013-09-17 21:14:00,
2013-09-17 17:20:00,66.2,39.2,30.23,ESE,106,0.0,-999.9,37,-99.99,,,-99.99,,2013-09-17 21:20:00,
2013-09-17 17:26:00,66.2,39.2,30.23,East,88,1.2,-999.9,37,-99.99,,,-99.99,,2013-09-17 21:26:00,
2013-09-17 17:32:00,66.2,39.2,30.23,ENE,60,3.5,-999.9,37,-99.99,,,-99.99,,2013-09-17 21:32:00,
2013-09-17 17:38:00,66.2,39.2,30.23,ENE,60,3.5,-999.9,37,-99.99,,,-99.99,,2013-09-17 21:38:00,
2013-09-17 17:44:00,66.2,39.2,30.22,SE,128,0.0,-999.9,37,-99.99,,,-99.99,,2013-09-17 21:44:00,
2013-09-17 17:50:00,66.2,39.2,30.22,SE,128,0.0,-999.9,37,-99.99,,,-99.99,,2013-09-17 21:50:00,
2013-09-17 17:56:00,66.2,41.0,30.23,SE,133,1.2,-999.9,40,-99.99,,,-99.99,,2013-09-17 21:56:00,
2013-09-17 18:02:00,66.2,39.2,30.23,East,79,2.3,-999.9,37,-99.99,,,-99.99,,2013-09-17 22:02:00,
2013-09-17 18:08:00,66.2,39.2,30.23,East,79,2.3,-999.9,37,-99.99,,,-99.99,,2013-09-17 22:08:00,
2013-09-17 18:14:00,66.2,39.2,30.23,North,0,0.0,-999.9,37,-99.99,,,-99.99,,2013-09-17 22:14:00,
2013-09-17 18:20:00,66.2,39.2,30.23,North,0,0.0,-999.9,37,-99.99,,,-99.99,,2013-09-17 22:20:00,
2013-09-17 18:26:00,66.2,41.0,30.23,ESE,115,0.0,-999.9,40,-99.99,,,-99.99,,2013-09-17 22:26:00,
2013-09-17 18:32:00,64.4,41.0,30.22,ESE,110,4.6,-999.9,42,-99.99,,,-99.99,,2013-09-17 22:32:00,
2013-09-17 18:38:00,64.4,41.0,30.22,ESE,110,4.6,-999.9,42,-99.99,,,-99.99,,2013-09-17 22:38:00,
2013-09-17 18:44:00,64.4,41.0,30.22,East,96,1.2,-999.9,42,-99.99,,,-99.99,,2013-09-17 22:44:00,
2013-09-17 18:50:00,64.4,41.0,30.22,East,96,1.2,-999.9,42,-99.99,,,-99.99,,2013-09-17 22:50:00,
2013-09-17 18:56:00,64.4,41.0,30.23,North,0,0.0,-999.9,42,-99.99,,,-99.99,,2013-09-17 22:56:00,
2013-09-17 19:02:00,62.6,41.0,30.23,ESE,115,3.5,-999.9,45,-99.99,,,-99.99,,2013-09-17 23:02:00,
2013-09-17 19:08:00,62.6,41.0,30.23,ESE,115,3.5,-999.9,45,-99.99,,,-99.99,,2013-09-17 23:08:00,
2013-09-17 19:14:00,62.6,41.0,30.23,North,0,0.0,-999.9,45,-99.99,,,-99.99,,2013-09-17 23:14:00,
2013-09-17 19:20:00,62.6,41.0,30.23,North,0,0.0,-999.9,45,-99.99,,,-99.99,,2013-09-17 23:20:00,
2013-09-17 19:26:00,62.6,41.0,30.23,North,0,0.0,-999.9,45,-99.99,,,-99.99,,2013-09-17 23:26:00,
2013-09-17 19:32:00,62.6,41.0,30.23,NE,50,0.0,-999.9,45,-99.99,,,-99.99,,2013-09-17 23:32:00,
2013-09-17 19:38:00,62.6,41.0,30.23,NE,50,0.0,-999.9,45,-99.99,,,-99.99,,2013-09-17 23:38:00,
2013-09-17 19:44:00,62.6,41.0,30.23,NE,55,0.0,-999.9,45,-99.99,,,-99.99,,2013-09-17 23:44:00,
2013-09-17 19:50:00,62.6,41.0,30.23,NE,55,0.0,-999.9,45,-99.99,,,-99.99,,2013-09-17 23:50:00,
2013-09-17 19:56:00,62.6,41.0,30.23,North,0,0.0,-999.9,45,-99.99,,,-99.99,,2013-09-17 23:56:00,
2013-09-17 20:02:00,62.6,41.0,30.23,North,0,0.0,-999.9,45,-99.99,,,-99.99,,2013-09-18 00:02:00,
2013-09-17 20:08:00,62.6,41.0,30.23,North,0,0.0,-999.9,45,-99.99,,,-99.99,,2013-09-18 00:08:00,
2013-09-17 21:02:00,60.8,42.8,30.25,SSW,201,0.0,-999.9,52,-99.99,,,-99.99,,2013-09-18 01:02:00,
2013-09-17 21:08:00,60.8,42.8,30.25,SSW,201,0.0,-999.9,52,-99.99,,,-99.99,,2013-09-18 01:08:00,
2013-09-17 21:14:00,60.8,42.8,30.25,South,182,6.9,-999.9,52,-99.99,,,-99.99,,2013-09-18 01:14:00,
2013-09-17 21:20:00,60.8,42.8,30.25,South,182,6.9,-999.9,52,-99.99,,,-99.99,,2013-09-18 01:20:00,
2013-09-17 21:26:00,60.8,42.8,30.25,South,185,6.9,-999.9,52,-99.99,,,-99.99,,2013-09-18 01:26:00,
2013-09-17 21:32:00,60.8,42.8,30.25,South,183,5.8,-999.9,52,-99.99,,,-99.99,,2013-09-18 01:32:00,
2013-09-17 21:38:00,60.8,42.8,30.25,South,183,5.8,-999.9,52,-99.99,,,-99.99,,2013-09-18 01:38:00,
2013-09-17 21:44:00,59.0,42.8,30.25,South,185,3.5,-999.9,55,-99.99,,,-99.99,,2013-09-18 01:44:00,
2013-09-17 21:50:00,59.0,42.8,30.25,South,185,3.5,-999.9,55,-99.99,,,-99.99,,2013-09-18 01:50:00,
2013-09-17 21:56:00,60.8,42.8,30.25,South,186,4.6,-999.9,52,-99.99,,,-99.99,,2013-09-18 01:56:00,
2013-09-17 22:02:00,59.0,42.8,30.25,South,189,1.2,-999.9,55,-99.99,,,-99.99,,2013-09-18 02:02:00,
2013-09-17 22:08:00,59.0,42.8,30.25,South,189,1.2,-999.9,55,-99.99,,,-99.99,,2013-09-18 02:08:00,
2013-09-17 22:14:00,59.0,42.8,30.25,South,180,3.5,-999.9,55,-99.99,,,-99.99,,2013-09-18 02:14:00,
2013-09-17 22:20:00,59.0,42.8,30.25,South,180,3.5,-999.9,55,-99.99,,,-99.99,,2013-09-18 02:20:00,
2013-09-17 22:26:00,59.0,42.8,30.25,South,187,4.6,-999.9,55,-99.99,,,-99.99,,2013-09-18 02:26:00,
2013-09-17 22:32:00,59.0,42.8,30.25,South,190,1.2,-999.9,55,-99.99,,,-99.99,,2013-09-18 02:32:00,
2013-09-17 22:38:00,59.0,42.8,30.25,South,190,1.2,-999.9,55,-99.99,,,-99.99,,2013-09-18 02:38:00,
2013-09-17 22:44:00,59.0,42.8,30.25,South,186,2.3,-999.9,55,-99.99,,,-99.99,,2013-09-18 02:44:00,
2013-09-17 22:50:00,59.0,42.8,30.25,South,186,2.3,-999.9,55,-99.99,,,-99.99,,2013-09-18 02:50:00,
2013-09-17 22:56:00,59.0,42.8,30.25,SSW,197,3.5,-999.9,55,-99.99,,,-99.99,,2013-09-18 02:56:00,
2013-09-17 23:02:00,59.0,42.8,30.25,South,183,3.5,-999.9,55,-99.99,,,-99.99,,2013-09-18 03:02:00,
2013-09-17 23:08:00,59.0,42.8,30.25,South,183,3.5,-999.9,55,-99.99,,,-99.99,,2013-09-18 03:08:00,
2013-09-17 23:14:00,59.0,42.8,30.25,South,183,3.5,-999.9,55,-99.99,,,-99.99,,2013-09-18 03:14:00,
2013-09-17 23:20:00,59.0,42.8,30.25,South,183,3.5,-999.9,55,-99.99,,,-99.99,,2013-09-18 03:20:00,
2013-09-17 23:26:00,59.0,44.6,30.25,WSW,246,0.0,-999.9,59,-99.99,,,-99.99,,2013-09-18 03:26:00,
2013-09-17 23:32:00,59.0,44.6,30.25,WSW,242,0.0,-999.9,59,-99.99,,,-99.99,,2013-09-18 03:32:00,
2013-09-17 23:38:00,59.0,44.6,30.25,WSW,242,0.0,-999.9,59,-99.99,,,-99.99,,2013-09-18 03:38:00,
2013-09-17 23:44:00,59.0,42.8,30.25,West,266,1.2,-999.9,55,-99.99,,,-99.99,,2013-09-18 03:44:00,
2013-09-17 23:50:00,59.0,42.8,30.25,West,266,1.2,-999.9,55,-99.99,,,-99.99,,2013-09-18 03:50:00,
2013-09-17 23:56:00,59.0,44.6,30.25,North,0,0.0,-999.9,59,-99.99,,,-99.99,,2013-09-18 03:56:00,